DW1256 Weather Reports


Display with metric or nautical units.
time (UTC)temp
F
wind
direction
speed
MPH
gust
MPH
rain 1hr
in
rain 24hr
in
rain mn
in
humidity
%
barometer
mb
20260906090950 69 51 0.0 3.0 0.00 0.00 0.00 77 1014.7
20260906090450 69 31 0.0 3.0 0.00 0.00 0.00 77 1014.6
20260906085952 70 31 1.0 4.0 0.00 0.00 0.00 77 1014.6
20260906085447 70 28 2.0 4.0 0.00 0.00 0.00 77 1014.6
20260906084948 70 59 2.0 4.0 0.00 0.00 0.00 77 1014.5
20260906084449 70 53 2.0 4.0 0.00 0.00 0.00 77 1014.5
20260906083947 70 94 1.0 4.0 0.00 0.00 0.00 77 1014.5
20260906083448 70 86 1.0 3.0 0.00 0.00 0.00 77 1014.5
20260906082946 70 9 1.0 4.0 0.00 0.00 0.00 76 1014.5
20260906081945 70 60 2.0 5.0 0.00 0.00 0.00 76 1014.3
20260906081444 70 67 2.0 5.0 0.00 0.00 0.00 76 1014.3
20260906080939 70 9 2.0 5.0 0.00 0.00 0.00 76 1014.4
20260906075926 70 61 1.0 3.0 0.00 0.00 0.00 75 1014.5
20260906075420 70 59 1.0 3.0 0.00 0.00 0.00 75 1014.5
20260906074914 70 92 1.0 4.0 0.00 0.00 0.00 75 1014.5
20260906074410 70 42 2.0 5.0 0.00 0.00 0.00 75 1014.4
20260906073902 71 54 2.0 5.0 0.00 0.00 0.00 75 1014.4
20260906073356 71 38 2.0 4.0 0.00 0.00 0.00 75 1014.3
20260906072850 71 82 1.0 4.0 0.00 0.00 0.00 75 1014.4
20260906072343 71 0 1.0 4.0 0.00 0.00 0.00 74 1014.4
20260906071840 71 67 2.0 4.0 0.00 0.00 0.00 74 1014.4
20260906071332 71 41 1.0 5.0 0.00 0.00 0.00 74 1014.4
20260906070826 71 31 1.0 5.0 0.00 0.00 0.00 74 1014.4
20260906065814 71 57 1.0 4.0 0.00 0.00 0.00 73 1014.4
20260906065310 71 38 1.0 4.0 0.00 0.00 0.00 73 1014.4
20260906064801 71 34 1.0 4.0 0.00 0.00 0.00 73 1014.4
20260906064256 71 12 0.0 3.0 0.00 0.00 0.00 73 1014.5
20260906063751 71 350 0.0 3.0 0.00 0.00 0.00 73 1014.6
20260906063250 71 35 1.0 4.0 0.00 0.00 0.00 73 1014.6
20260906062747 71 355 2.0 5.0 0.00 0.00 0.00 72 1014.6
20260906062245 71 32 2.0 5.0 0.00 0.00 0.00 72 1014.5
20260906061745 72 40 2.0 4.0 0.00 0.00 0.00 72 1014.4
20260906061247 72 53 2.0 4.0 0.00 0.00 0.00 72 1014.5
20260906060747 72 80 1.0 4.0 0.00 0.00 0.00 72 1014.6
20260906060250 72 49 1.0 3.0 0.00 0.00 0.00 72 1014.5
20260906055247 72 43 1.0 4.0 0.00 0.00 0.00 72 1014.2
20260906054744 72 50 1.0 3.0 0.00 0.00 0.00 72 1014.2
20260906054243 72 51 1.0 3.0 0.00 0.00 0.00 72 1014.2
20260906053241 72 41 1.0 5.0 0.00 0.00 0.00 72 1014.0
20260906052743 72 36 2.0 5.0 0.00 0.00 0.00 71 1013.9
20260906052242 72 26 2.0 5.0 0.00 0.00 0.00 71 1014.0
20260906051742 72 36 2.0 5.0 0.00 0.00 0.00 71 1014.0
20260906050729 72 56 3.0 9.0 0.00 0.00 0.00 71 1013.8
20260906050224 72 51 2.0 9.0 0.00 0.00 0.00 71 1013.8
20260906045718 72 49 1.0 5.0 0.00 0.00 0.00 71 1013.7
20260906045212 72 58 2.0 5.0 0.00 0.00 0.00 71 1013.8
20260906044705 72 38 2.0 6.0 0.00 0.00 0.00 71 1013.8
20260906044159 72 65 2.0 6.0 0.00 0.00 0.00 71 1013.8
20260906043652 72 344 2.0 5.0 0.00 0.00 0.00 71 1013.8
20260906043147 72 40 3.0 6.0 0.00 0.00 0.00 71 1013.9
20260906042641 72 19 2.0 6.0 0.00 0.00 0.00 71 1013.8
20260906042135 72 46 2.0 8.0 0.00 0.00 0.00 71 1013.7
20260906041628 72 23 2.0 8.0 0.00 0.00 0.00 71 1013.6
20260906041125 72 36 2.0 7.0 0.00 0.00 0.00 71 1013.6
20260906040617 72 42 2.0 6.0 0.00 0.00 0.00 71 1013.7
20260906040112 72 84 2.0 6.0 0.00 0.00 0.00 71 1013.7
20260906035604 72 44 2.0 5.0 0.00 0.00 0.00 71 1013.6
20260906035101 72 25 2.0 6.0 0.00 0.00 0.00 71 1013.6
20260906034553 72 42 2.0 6.0 0.00 0.00 0.00 71 1013.7
20260906034048 72 42 3.0 7.0 0.00 0.00 0.00 71 1013.7
20260906033035 72 66 3.0 10.0 0.00 0.00 0.00 71 1013.6
20260906032529 72 87 3.0 11.0 0.00 0.00 0.00 71 1013.5
20260906032023 72 59 4.0 11.0 0.00 0.00 0.00 71 1013.5
20260906030505 72 19 3.0 9.0 0.00 0.00 0.00 70 1013.6
20260906030000 72 44 3.0 9.0 0.00 0.00 0.00 70 1013.6
20260906025453 72 51 3.0 9.0 0.00 0.00 0.00 70 1013.5
20260906024946 72 51 3.0 8.0 0.00 0.00 0.00 70 1013.4
20260906024441 72 59 2.0 5.0 0.00 0.00 0.00 70 1013.5
20260906023429 72 47 1.0 7.0 0.00 0.00 0.00 70 1013.4
20260906022923 72 40 1.0 5.0 0.00 0.00 0.00 70 1013.5
20260906021912 72 25 1.0 8.0 0.00 0.00 0.00 69 1013.4
20260906020353 73 36 2.0 8.0 0.00 0.00 0.00 69 1013.4
20260906015847 73 28 2.0 8.0 0.00 0.00 0.00 69 1013.3
20260906015340 73 26 2.0 7.0 0.00 0.00 0.00 69 1013.3
20260906014329 73 355 2.0 6.0 0.00 0.00 0.00 68 1013.3
20260906013316 73 46 2.0 8.0 0.00 0.00 0.00 68 1013.1
20260906012306 74 355 2.0 7.0 0.00 0.00 0.00 68 1013.0
20260906011759 74 316 2.0 6.0 0.00 0.00 0.00 67 1013.0
20260906011253 74 47 2.0 9.0 0.00 0.00 0.00 67 1012.9
20260906010747 74 20 3.0 9.0 0.00 0.00 0.00 67 1012.9
20260906010241 74 67 3.0 8.0 0.00 0.00 0.00 67 1012.8
20260906005228 75 54 4.0 12.0 0.00 0.00 0.00 66 1012.5
20260906004725 75 44 4.0 12.0 0.00 0.00 0.00 66 1012.5
20260906004217 75 33 3.0 10.0 0.00 0.00 0.00 66 1012.5
20260906003713 76 326 3.0 9.0 0.00 0.00 0.00 65 1012.6
20260906003204 76 16 3.0 11.0 0.00 0.00 0.00 65 1012.6
20260906002700 76 349 3.0 11.0 0.00 0.00 0.00 64 1012.7
20260906002153 77 33 4.0 11.0 0.00 0.00 0.00 64 1012.5
20260906001647 77 48 5.0 14.0 0.00 0.00 0.00 63 1012.5
20260906001141 78 32 4.0 15.0 0.00 0.00 0.00 63 1012.5
20260906000636 78 32 4.0 15.0 0.00 0.00 0.00 63 1012.5
20260906000129 78 59 4.0 12.0 0.00 0.00 0.00 62 1012.6
20260905235117 79 58 6.0 16.0 0.00 0.00 0.00 62 1012.4
20260905234613 80 5 6.0 16.0 0.00 0.00 0.00 61 1012.3
20260905234105 80 39 6.0 16.0 0.00 0.00 0.00 61 1012.1
20260905233601 81 40 6.0 12.0 0.00 0.00 0.00 60 1012.2
20260905232547 81 33 7.0 13.0 0.00 0.00 0.00 59 1012.2
20260905232041 82 26 6.0 13.0 0.00 0.00 0.00 59 1012.1
20260905231535 82 28 5.0 13.0 0.00 0.00 0.00 58 1011.9
20260905231029 83 51 5.0 13.0 0.00 0.00 0.00 58 1011.8
20260905230525 83 42 5.0 13.0 0.00 0.00 0.00 58 1011.8
20260905230017 83 28 5.0 13.0 0.00 0.00 0.00 57 1011.7
20260905225516 83 34 6.0 13.0 0.00 0.00 0.00 56 1011.6
20260905225005 84 19 6.0 14.0 0.00 0.00 0.00 56 1011.6
20260905224458 84 87 6.0 14.0 0.00 0.00 0.00 56 1011.7
20260905223955 84 41 7.0 16.0 0.00 0.00 0.00 56 1011.6
20260905223446 85 86 6.0 16.0 0.00 0.00 0.00 55 1011.6
20260905222435 85 56 7.0 13.0 0.00 0.00 0.00 55 1011.6
20260905221931 86 68 7.0 13.0 0.00 0.00 0.00 55 1011.5
20260905221423 86 40 6.0 12.0 0.00 0.00 0.00 54 1011.5
20260905220917 86 53 7.0 14.0 0.00 0.00 0.00 55 1011.3
20260905220410 86 25 7.0 15.0 0.00 0.00 0.00 54 1011.3
20260905215358 88 59 5.0 15.0 0.00 0.00 0.00 54 1011.1
20260905214854 88 34 5.0 14.0 0.00 0.00 0.00 52 1011.1
20260905213335 88 312 5.0 11.0 0.00 0.00 0.00 53 1011.2
20260905212830 89 59 5.0 11.0 0.00 0.00 0.00 52 1011.1
20260905211817 90 18 6.0 14.0 0.00 0.00 0.00 51 1011.1
20260905210805 91 339 5.0 11.0 0.00 0.00 0.00 52 1011.1
20260905210259 91 340 4.0 13.0 0.00 0.00 0.00 52 1011.1
20260905205752 91 346 5.0 14.0 0.00 0.00 0.00 52 1011.0
20260905204740 91 13 5.0 13.0 0.00 0.00 0.00 53 1010.9
20260905204236 90 25 5.0 13.0 0.00 0.00 0.00 53 1010.8
20260905203729 90 46 4.0 11.0 0.00 0.00 0.00 52 1010.8
20260905203223 92 355 5.0 12.0 0.00 0.00 0.00 51 1010.9
20260905202718 92 347 5.0 12.0 0.00 0.00 0.00 51 1011.0
20260905202211 92 28 5.0 12.0 0.00 0.00 0.00 52 1011.0
20260905201706 92 304 5.0 12.0 0.00 0.00 0.00 50 1011.1
20260905200652 93 41 5.0 12.0 0.00 0.00 0.00 50 1011.0
20260905200147 93 28 6.0 12.0 0.00 0.00 0.00 51 1010.9
20260905195642 92 295 5.0 11.0 0.00 0.00 0.00 51 1010.9
20260905195135 93 5 4.0 10.0 0.00 0.00 0.00 51 1010.9
20260905194630 92 298 5.0 12.0 0.00 0.00 0.00 51 1011.0
20260905194123 92 327 5.0 12.0 0.00 0.00 0.00 51 1011.1
20260905193111 93 312 3.0 8.0 0.00 0.00 0.00 49 1011.2
20260905192604 93 355 3.0 8.0 0.00 0.00 0.00 49 1011.2
20260905192059 93 340 3.0 8.0 0.00 0.00 0.00 52 1011.1
20260905191553 92 340 4.0 9.0 0.00 0.00 0.00 51 1011.2
20260905191046 92 42 4.0 9.0 0.00 0.00 0.00 53 1011.2
20260905190545 91 336 4.0 12.0 0.00 0.00 0.00 52 1011.4
20260905190044 92 335 4.0 12.0 0.00 0.00 0.00 51 1011.4
20260905185042 94 34 3.0 8.0 0.00 0.00 0.00 49 1011.4
20260905184041 92 305 4.0 10.0 0.00 0.00 0.00 53 1011.7
20260905183542 92 330 3.0 10.0 0.00 0.00 0.00 51 1011.7
20260905183044 92 341 3.0 7.0 0.00 0.00 0.00 54 1011.6
20260905182540 92 328 3.0 8.0 0.00 0.00 0.00 52 1011.7
20260905181537 93 325 3.0 10.0 0.00 0.00 0.00 51 1011.7
20260905180537 91 355 3.0 6.0 0.00 0.00 0.00 52 1011.7
20260905180039 92 17 1.0 6.0 0.00 0.00 0.00 54 1011.7
20260905175538 92 300 2.0 6.0 0.00 0.00 0.00 52 1011.8
20260905175038 90 332 3.0 10.0 0.00 0.00 0.00 53 1011.8
20260905174538 91 309 3.0 10.0 0.00 0.00 0.00 53 1011.8
20260905174039 91 296 3.0 7.0 0.00 0.00 0.00 54 1011.8
20260905173027 91 343 2.0 8.0 0.00 0.00 0.00 54 1011.9
20260905172015 91 355 3.0 8.0 0.00 0.00 0.00 52 1012.0
20260905171003 91 290 2.0 8.0 0.00 0.00 0.00 51 1012.1
20260905170459 91 351 2.0 6.0 0.00 0.00 0.00 51 1012.1
20260905165953 91 325 3.0 6.0 0.00 0.00 0.00 52 1012.2
20260905165447 90 306 2.0 6.0 0.00 0.00 0.00 53 1012.2
20260905164939 90 257 2.0 6.0 0.00 0.00 0.00 54 1012.2
20260905164433 90 329 3.0 6.0 0.00 0.00 0.00 53 1012.2
20260905163927 90 0 3.0 7.0 0.00 0.00 0.00 54 1012.3
20260905163422 90 286 3.0 8.0 0.00 0.00 0.00 54 1012.3
20260905162915 89 335 3.0 8.0 0.00 0.00 0.00 55 1012.3
20260905162409 89 311 4.0 8.0 0.00 0.00 0.00 55 1012.3
20260905161903 89 310 5.0 9.0 0.00 0.00 0.00 53 1012.3
20260905161357 89 285 5.0 10.0 0.00 0.00 0.00 53 1012.3
20260905160852 90 292 5.0 10.0 0.00 0.00 0.00 51 1012.3
20260905155839 89 315 4.0 12.0 0.00 0.00 0.00 52 1012.3
20260905155334 89 307 3.0 7.0 0.00 0.00 0.00 56 1012.2
20260905154829 89 312 3.0 8.0 0.00 0.00 0.00 56 1012.1
20260905153816 89 329 3.0 11.0 0.00 0.00 0.00 55 1012.1
20260905153314 88 289 1.0 6.0 0.00 0.00 0.00 56 1012.2
20260905152803 88 313 1.0 6.0 0.00 0.00 0.00 56 1012.2
20260905152257 88 302 2.0 7.0 0.00 0.00 0.00 58 1012.2
20260905151752 88 275 2.0 7.0 0.00 0.00 0.00 57 1012.2
20260905151245 87 0 2.0 6.0 0.00 0.00 0.00 58 1012.1
20260905150739 86 283 3.0 6.0 0.00 0.00 0.00 59 1012.2
20260905150234 86 292 2.0 5.0 0.00 0.00 0.00 59 1012.1
20260905145727 86 328 2.0 5.0 0.00 0.00 0.00 60 1012.1
20260905144715 85 315 2.0 4.0 0.00 0.00 0.00 60 1012.0
20260905144210 86 5 2.0 5.0 0.00 0.00 0.00 60 1012.0
20260905143704 85 13 2.0 5.0 0.00 0.00 0.00 61 1011.9
20260905143156 85 346 2.0 5.0 0.00 0.00 0.00 62 1011.9
20260905142148 83 341 2.0 6.0 0.00 0.00 0.00 63 1012.1
20260905141649 83 52 2.0 6.0 0.00 0.00 0.00 64 1012.2
20260905141149 83 313 3.0 6.0 0.00 0.00 0.00 63 1012.3
20260905140146 83 336 2.0 4.0 0.00 0.00 0.00 64 1012.1
20260905135643 83 331 1.0 5.0 0.00 0.00 0.00 65 1012.1
20260905135139 82 0 2.0 5.0 0.00 0.00 0.00 65 1012.1
20260905134641 82 323 1.0 3.0 0.00 0.00 0.00 65 1012.0
20260905133640 81 274 0.0 0.0 0.00 0.00 0.00 65 1011.9
20260905133142 81 273 0.0 0.0 0.00 0.00 0.00 66 1011.9
20260905132639 80 274 0.0 0.0 0.00 0.00 0.00 67 1011.9
20260905131638 80 274 0.0 0.0 0.00 0.00 0.00 70 1011.8
20260905131136 79 274 0.0 0.0 0.00 0.00 0.00 73 1011.8
20260905130637 78 274 0.0 0.0 0.00 0.00 0.00 74 1011.8
20260905130137 78 274 0.0 0.0 0.00 0.00 0.00 74 1011.8
20260905125634 77 274 0.0 0.0 0.00 0.00 0.00 74 1011.8
20260905124629 77 274 0.0 0.0 0.00 0.00 0.00 74 1011.8
20260905124129 76 273 0.0 0.0 0.00 0.00 0.00 74 1011.8
20260905123125 76 273 0.0 0.0 0.00 0.00 0.00 74 1011.7
20260905122621 76 273 0.0 0.0 0.00 0.00 0.00 73 1011.7
20260905122121 76 273 0.0 0.0 0.00 0.00 0.00 73 1011.7
20260905121622 76 273 0.0 0.0 0.00 0.00 0.00 73 1011.7
20260905121120 75 273 0.0 0.0 0.00 0.00 0.00 73 1011.7
20260905120620 75 273 0.0 0.0 0.00 0.00 0.00 73 1011.6
20260905120115 75 274 0.0 0.0 0.00 0.00 0.00 73 1011.6
20260905115620 75 273 0.0 0.0 0.00 0.00 0.00 73 1011.6
20260905115115 75 273 0.0 0.0 0.00 0.00 0.00 73 1011.5
20260905114614 75 273 0.0 0.0 0.00 0.00 0.00 72 1011.5
20260905114113 75 273 0.0 0.0 0.00 0.00 0.00 72 1011.4
20260905113610 76 273 0.0 0.0 0.00 0.00 0.00 72 1011.4
20260905113110 76 274 0.0 0.0 0.00 0.00 0.00 72 1011.5
20260905112610 76 273 0.0 0.0 0.00 0.00 0.00 72 1011.4
20260905112109 76 273 0.0 0.0 0.00 0.00 0.00 72 1011.4
20260905111608 76 273 0.0 0.0 0.00 0.00 0.00 72 1011.4
20260905111110 76 274 0.0 0.0 0.00 0.00 0.00 72 1011.3
20260905110612 76 273 0.0 0.0 0.00 0.00 0.00 72 1011.3
20260905110109 76 273 0.0 0.0 0.00 0.00 0.00 72 1011.3
20260905105607 76 273 0.0 0.0 0.00 0.00 0.00 71 1011.2
20260905105104 76 274 0.0 0.0 0.00 0.00 0.00 71 1011.3
20260905104604 76 274 0.0 0.0 0.00 0.00 0.00 71 1011.2
20260905104106 76 273 0.0 1.0 0.00 0.00 0.00 71 1011.3
20260905103605 76 273 0.0 1.0 0.00 0.00 0.00 71 1011.3
20260905103101 76 273 0.0 1.0 0.00 0.00 0.00 71 1011.4
20260905102602 76 273 0.0 0.0 0.00 0.00 0.00 71 1011.3
20260905101602 77 273 0.0 0.0 0.00 0.00 0.00 71 1011.5
20260905101103 77 273 0.0 0.0 0.00 0.00 0.00 71 1011.5
20260905100605 77 273 0.0 0.0 0.00 0.00 0.00 71 1011.4
20260905095602 77 273 0.0 0.0 0.00 0.00 0.00 71 1011.2
20260905095102 77 273 0.0 0.0 0.00 0.00 0.00 71 1011.3
20260905094602 77 274 0.0 1.0 0.00 0.00 0.00 71 1011.2
20260905094101 77 274 0.0 1.0 0.00 0.00 0.00 71 1011.2
20260905093601 77 274 0.0 1.0 0.00 0.00 0.00 71 1011.3
20260905093103 77 274 0.0 1.0 0.00 0.00 0.00 71 1011.4
20260905092602 77 274 0.0 1.0 0.00 0.00 0.00 71 1011.3
20260905092102 77 274 0.0 3.0 0.00 0.00 0.00 71 1011.3
20260905091603 77 273 0.0 3.0 0.00 0.00 0.00 71 1011.4